Location: Pianadetto
(44.4000°N, 10.1000°E)
Time: 20:51:25
(UTC+00:00)

SeaSat 1 - Pass Details

Date: 26 May 2022
Orbit: 743 x 747 km, 108.0° (Epoch: 02 July)

Event Time Altitude Azimuth Distance (km) Brightness Sun altitude
Rises 03:02:23 0° 31° (NNE) 3,200 7.3 -6.7°
Reaches altitude 10° 03:04:43 10° 36° (NE) 2,272 6.5 -6.4°
Maximum altitude 03:09:32 53° 113° (ESE) 920 3.2 -5.7°
Drops below altitude 10° 03:14:20 10° 190° (S) 2,256 4.5 -5.0°
Sets 03:16:38 0° 195° (SSW) 3,175 5.2 -4.7°
